DW9727 Weather Reports


time (UTC)temp
C
wind
direction
speed
KPH
gust
KPH
rain 1hr
cm
rain 24hr
cm
rain mn
cm
humidity
%
barometer
mb
20260902021711 28 54 1.6 4.8 0.00 0.03 0.03 77 1007.9
20260902020710 28 59 3.2 4.8 0.00 0.03 0.03 76 1007.7
20260902014710 28 176 0.0 0.0 0.00 0.03 0.03 73 1007.4
20260902013710 29 210 0.0 0.0 0.00 0.03 0.03 72 1007.3
20260902012710 30 210 0.0 0.0 0.00 0.03 0.03 71 1007.2
20260902011711 30 210 0.0 0.0 0.00 0.03 0.03 69 1007.2
20260902010710 30 209 0.0 1.6 0.00 0.03 0.03 68 1007.5
20260902004710 31 175 0.0 3.2 0.00 0.03 0.03 66 1007.4
20260902003711 31 178 1.6 4.8 0.00 0.03 0.03 65 1007.4
20260902002710 31 189 1.6 8.0 0.00 0.03 0.03 65 1007.3
20260902001710 31 181 3.2 4.8 0.00 0.03 0.03 65 1007.3
20260901235710 31 161 4.8 8.0 0.00 0.03 0.03 64 1007.4
20260901234710 31 178 8.0 11.3 0.00 0.03 0.03 63 1007.5
20260901233711 32 175 6.4 14.5 0.00 0.03 0.03 63 1007.6
20260901232710 32 188 8.0 11.3 0.00 0.03 0.03 62 1007.7
20260901231711 32 164 8.0 16.1 0.00 0.03 0.03 61 1007.7
20260901230710 32 173 8.0 14.5 0.00 0.03 0.03 62 1007.8
20260901225710 32 165 8.0 16.1 0.00 0.03 0.03 60 1007.9
20260901224711 32 162 9.7 16.1 0.00 0.03 0.03 60 1008.0
20260901223711 32 171 9.7 16.1 0.00 0.03 0.03 60 1008.1
20260901222710 32 189 4.8 19.3 0.00 0.03 0.03 60 1008.1
20260901221711 33 171 6.4 16.1 0.00 0.03 0.03 58 1008.1
20260901215711 33 166 12.9 19.3 0.00 0.03 0.03 55 1008.2
20260901214710 33 164 8.0 16.1 0.00 0.03 0.03 56 1008.4
20260901213711 33 194 9.7 14.5 0.00 0.03 0.03 56 1008.4
20260901212710 33 164 8.0 14.5 0.00 0.03 0.03 56 1008.5
20260901211710 33 197 9.7 19.3 0.00 0.03 0.03 55 1008.5
20260901204711 33 175 9.7 22.5 0.00 0.03 0.03 56 1008.8
20260901203710 33 171 9.7 19.3 0.00 0.03 0.03 56 1008.9
20260901202710 33 171 8.0 22.5 0.00 0.03 0.03 57 1008.9
20260901201710 32 191 3.2 19.3 0.00 0.03 0.03 60 1009.1
20260901200711 32 170 4.8 14.5 0.00 0.03 0.03 60 1009.2
20260901195710 32 138 9.7 19.3 0.00 0.03 0.03 62 1009.3
20260901194710 32 176 9.7 22.5 0.00 0.03 0.03 60 1009.6
20260901193711 31 187 9.7 14.5 0.00 0.03 0.03 62 1009.6
20260901192711 31 170 9.7 19.3 0.00 0.03 0.03 66 1009.6
20260901191710 31 94 11.3 27.4 0.00 0.03 0.03 63 1009.6
20260901185710 31 190 12.9 29.0 0.00 0.03 0.03 66 1009.6
20260901184711 31 122 14.5 24.1 0.00 0.03 0.03 66 1009.6
20260901183710 31 139 11.3 22.5 0.00 0.03 0.03 68 1009.6
20260901182710 31 81 11.3 29.0 0.00 0.03 0.03 68 1009.7
20260901175711 30 94 11.3 16.1 0.00 0.03 0.03 68 1010.1
20260901174710 30 96 11.3 19.3 0.00 0.03 0.03 69 1010.2
20260901173710 30 94 8.0 16.1 0.00 0.03 0.03 72 1010.1
20260901172710 30 115 8.0 14.5 0.00 0.03 0.03 70 1010.1
20260901171711 30 58 8.0 19.3 0.00 0.03 0.03 71 1010.2
20260901170710 30 68 8.0 19.3 0.00 0.03 0.03 70 1010.1
20260901165711 30 52 4.8 14.5 0.00 0.03 0.03 71 1010.2
20260901164710 30 315 4.8 14.5 0.00 0.03 0.03 70 1010.3
20260901162711 28 44 8.0 19.3 0.00 0.03 0.03 73 1010.3
20260901161710 28 36 8.0 14.5 0.00 0.03 0.03 72 1010.4
20260901160711 28 327 6.4 12.9 0.00 0.03 0.03 71 1010.5
20260901155710 28 29 4.8 14.5 0.00 0.03 0.03 71 1010.5
20260901154710 28 42 4.8 11.3 0.00 0.03 0.03 71 1010.3
20260901153710 28 23 8.0 12.9 0.00 0.03 0.03 72 1010.4
20260901152711 28 47 4.8 11.3 0.00 0.03 0.03 72 1010.3
20260901151712 28 61 6.4 11.3 0.00 0.03 0.03 69 1010.3
20260901150710 28 11 4.8 9.7 0.00 0.03 0.03 70 1010.3
20260901145710 28 0 3.2 8.0 0.00 0.03 0.03 70 1010.5
20260901144710 27 57 0.0 4.8 0.00 0.03 0.03 71 1010.4
20260901143711 27 69 1.6 4.8 0.00 0.03 0.03 73 1010.6
20260901142711 26 115 1.6 4.8 0.00 0.03 0.03 75 1010.6
20260901141711 26 69 1.6 4.8 0.00 0.03 0.03 76 1010.9
20260901140710 26 117 3.2 4.8 0.00 0.03 0.03 80 1010.7
20260901134710 25 56 3.2 4.8 0.00 0.03 0.03 86 1011.1
20260901133712 25 108 1.6 3.2 0.00 0.03 0.03 86 1011.2
20260901132710 24 101 1.6 3.2 0.00 0.03 0.03 88 1011.2
20260901131711 23 101 0.0 0.0 0.00 0.03 0.03 90 1011.2
20260901130710 23 101 0.0 3.2 0.00 0.03 0.03 90 1011.0
20260901124711 23 69 0.0 0.0 0.00 0.03 0.03 90 1010.8
20260901123711 22 69 0.0 4.8 0.00 0.03 0.03 90 1010.6
20260901122711 22 88 1.6 4.8 0.00 0.03 0.03 90 1010.5
20260901121711 22 55 3.2 4.8 0.00 0.03 0.03 90 1010.3
20260901120710 22 55 0.0 4.8 0.00 0.03 0.03 90 1010.4
20260901115711 22 49 1.6 4.8 0.00 0.03 0.03 90 1010.3
20260901114711 22 48 0.0 4.8 0.00 0.03 0.03 90 1010.2
20260901113711 22 59 1.6 3.2 0.00 0.03 0.03 90 1010.2
20260901112711 23 76 0.0 4.8 0.00 0.03 0.03 90 1010.1
20260901111711 23 48 3.2 4.8 0.00 0.03 0.03 90 1009.9
20260901110710 23 66 0.0 4.8 0.00 0.03 0.03 90 1009.9
20260901105711 23 54 1.6 8.0 0.00 0.03 0.03 90 1009.9
20260901104710 23 59 3.2 4.8 0.00 0.03 0.03 89 1010.0
20260901102710 23 89 3.2 4.8 0.00 0.03 0.03 88 1009.9
20260901101711 23 68 1.6 3.2 0.00 0.03 0.03 87 1010.1
20260901100710 23 137 0.0 3.2 0.00 0.03 0.03 87 1010.2
20260901095711 23 137 0.0 3.2 0.00 0.03 0.03 86 1010.2
20260901094711 24 137 1.6 4.8 0.00 0.03 0.03 85 1010.2
20260901093710 24 108 0.0 3.2 0.00 0.03 0.03 85 1010.2
20260901091711 25 123 3.2 4.8 0.00 0.03 0.03 84 1010.4
20260901090710 25 61 0.0 0.0 0.00 0.03 0.03 84 1010.3
20260901085710 25 61 0.0 3.2 0.00 0.03 0.03 84 1010.5
20260901084711 25 34 1.6 3.2 0.03 0.03 0.03 83 1010.8
20260901083710 25 109 1.6 11.3 0.03 0.03 0.03 83 1010.4
20260901082711 25 127 8.0 11.3 0.03 0.03 0.03 84 1010.3
20260901081710 25 100 3.2 11.3 0.03 0.03 0.03 85 1010.4
20260901080710 25 142 4.8 11.3 0.03 0.03 0.03 84 1010.5
20260901075711 25 115 6.4 11.3 0.03 0.03 0.03 84 1010.7
20260901074711 25 108 3.2 4.8 0.00 0.00 0.00 83 1011.1
20260901072710 25 146 1.6 3.2 0.00 0.00 0.00 84 1011.2
20260901071711 25 93 0.0 0.0 0.00 0.00 0.00 84 1011.1
20260901070710 25 93 0.0 1.6 0.00 0.00 0.00 84 1010.9
20260901065711 25 94 1.6 4.8 0.00 0.00 0.00 84 1011.3
20260901064711 25 59 1.6 3.2 0.00 0.00 0.00 84 1011.3
20260901063710 25 114 1.6 4.8 0.00 0.00 0.00 83 1011.3
20260901062711 25 98 3.2 4.8 0.00 0.00 0.00 84 1011.3
20260901061710 25 108 1.6 4.8 0.00 0.00 0.00 84 1011.3
20260901060712 25 111 3.2 4.8 0.00 0.00 0.00 86 1011.5
20260901055710 25 120 0.0 0.0 0.00 0.00 0.00 86 1011.6
20260901054710 24 120 0.0 0.0 0.00 0.00 0.00 86 1011.4
20260901053710 24 120 0.0 3.2 0.00 0.00 0.00 86 1011.6
20260901050711 24 119 1.6 9.7 0.00 0.00 0.00 86 1011.5
20260901045710 24 9 1.6 4.8 0.00 0.00 0.00 85 1011.6
20260901044711 25 327 0.0 0.0 0.00 0.00 0.00 84 1011.6
20260901043711 25 327 0.0 0.0 0.00 0.00 0.00 84 1011.6
20260901041710 25 326 0.0 0.0 0.00 0.00 0.00 82 1011.5
20260901040710 25 105 0.0 0.0 0.00 0.00 0.00 82 1011.5
20260901034710 25 105 0.0 0.0 0.00 0.00 0.00 81 1011.4
20260901033711 25 105 0.0 0.0 0.00 0.00 0.00 80 1011.4
20260901032710 26 105 0.0 3.2 0.00 0.00 0.00 80 1011.2
20260901031710 26 105 1.6 1.6 0.00 0.00 0.00 80 1011.3
20260901025711 26 105 0.0 4.8 0.00 0.00 0.00 79 1011.1